Time,TemperatureF,DewpointF,PressureIn,WindDirection,WindDirectionDegrees,WindSpeedMPH,WindSpeedGustMPH,Humidity,HourlyPrecipIn,Conditions,Clouds,dailyrainin,SolarRadiationWatts/m^2,SoftwareType,DateUTC
2013-05-13 00:00:00,34.0,29.0,-100.00,NW,315,1.0,-999.0,84,-99.99,,,-99.99,0.000000,,2013-05-13 04:00:00,
2013-05-13 00:42:00,34.0,29.0,-100.00,NW,315,1.0,-999.0,84,-99.99,,,-99.99,0.000000,,2013-05-13 04:42:00,
2013-05-13 00:53:00,34.0,29.0,-100.00,NW,315,1.0,-999.0,84,-99.99,,,-99.99,0.000000,,2013-05-13 04:53:00,
2013-05-13 01:00:00,36.0,30.0,-100.00,WNW,292,0.0,-999.0,79,-99.99,,,-99.99,0.000000,,2013-05-13 05:00:00,
2013-05-13 01:42:00,36.0,30.0,-100.00,WNW,292,0.0,-999.0,79,-99.99,,,-99.99,0.000000,,2013-05-13 05:42:00,
2013-05-13 01:52:00,36.0,30.0,-100.00,WNW,292,0.0,-999.0,79,-99.99,,,-99.99,0.000000,,2013-05-13 05:52:00,
2013-05-13 02:00:00,36.0,30.0,-100.00,West,270,1.0,-999.0,78,-99.99,,,-99.99,0.000000,,2013-05-13 06:00:00,
2013-05-13 02:42:00,36.0,30.0,-100.00,West,270,1.0,-999.0,78,-99.99,,,-99.99,0.000000,,2013-05-13 06:42:00,
2013-05-13 02:52:00,36.0,30.0,-100.00,West,270,1.0,-999.0,78,-99.99,,,-99.99,0.000000,,2013-05-13 06:52:00,
2013-05-13 03:00:00,36.0,29.0,-100.00,West,270,2.0,-999.0,75,-99.99,,,-99.99,0.000000,,2013-05-13 07:00:00,
2013-05-13 03:42:00,36.0,29.0,-100.00,West,270,2.0,-999.0,75,-99.99,,,-99.99,0.000000,,2013-05-13 07:42:00,
2013-05-13 03:52:00,36.0,29.0,-100.00,West,270,2.0,-999.0,75,-99.99,,,-99.99,0.000000,,2013-05-13 07:52:00,
2013-05-13 04:00:00,36.0,29.0,-100.00,West,270,1.0,-999.0,77,-99.99,,,-99.99,0.000000,,2013-05-13 08:00:00,
2013-05-13 04:42:00,36.0,29.0,-100.00,West,270,1.0,-999.0,77,-99.99,,,-99.99,0.000000,,2013-05-13 08:42:00,
2013-05-13 04:52:00,36.0,29.0,-100.00,West,270,1.0,-999.0,77,-99.99,,,-99.99,0.000000,,2013-05-13 08:52:00,
2013-05-13 05:00:00,35.0,28.0,-100.00,NW,315,3.0,-999.0,75,-99.99,,,-99.99,0.000000,,2013-05-13 09:00:00,
2013-05-13 05:42:00,35.0,28.0,-100.00,NW,315,3.0,-999.0,75,-99.99,,,-99.99,0.000000,,2013-05-13 09:42:00,
2013-05-13 05:52:00,35.0,28.0,-100.00,NW,315,3.0,-999.0,75,-99.99,,,-99.99,0.000000,,2013-05-13 09:52:00,
2013-05-13 08:00:00,36.0,30.0,-100.00,NNW,337,0.0,-999.0,81,-99.99,,,-99.99,102.080002,,2013-05-13 12:00:00,
2013-05-13 08:42:00,36.0,30.0,-100.00,NNW,337,0.0,-999.0,81,-99.99,,,-99.99,102.080002,,2013-05-13 12:42:00,
2013-05-13 08:52:00,36.0,30.0,-100.00,NNW,337,0.0,-999.0,81,-99.99,,,-99.99,102.080002,,2013-05-13 12:52:00,
2013-05-13 09:00:00,42.0,29.0,-100.00,NW,315,2.0,-999.0,58,-99.99,,,-99.99,258.679993,,2013-05-13 13:00:00,
2013-05-13 09:42:00,42.0,29.0,-100.00,NW,315,2.0,-999.0,58,-99.99,,,-99.99,258.679993,,2013-05-13 13:42:00,
2013-05-13 09:52:00,42.0,29.0,-100.00,NW,315,2.0,-999.0,58,-99.99,,,-99.99,258.679993,,2013-05-13 13:52:00,
2013-05-13 10:00:00,46.0,21.0,-100.00,WNW,292,3.0,-999.0,37,-99.99,,,-99.99,412.959991,,2013-05-13 14:00:00,
2013-05-13 10:42:00,46.0,21.0,-100.00,WNW,292,3.0,-999.0,37,-99.99,,,-99.99,412.959991,,2013-05-13 14:42:00,
2013-05-13 10:52:00,46.0,21.0,-100.00,WNW,292,3.0,-999.0,37,-99.99,,,-99.99,412.959991,,2013-05-13 14:52:00,
2013-05-13 11:00:00,48.0,20.0,-100.00,WSW,247,2.0,-999.0,33,-99.99,,,-99.99,556.799988,,2013-05-13 15:00:00,
2013-05-13 11:42:00,48.0,20.0,-100.00,WSW,247,2.0,-999.0,33,-99.99,,,-99.99,556.799988,,2013-05-13 15:42:00,
2013-05-13 11:53:00,48.0,20.0,-100.00,WSW,247,2.0,-999.0,33,-99.99,,,-99.99,556.799988,,2013-05-13 15:53:00,
2013-05-13 12:00:00,50.0,22.0,-100.00,SSE,157,4.0,-999.0,32,-99.99,,,-99.99,676.280029,,2013-05-13 16:00:00,
2013-05-13 12:34:00,50.0,22.0,-100.00,SSE,157,4.0,-999.0,32,-99.99,,,-99.99,676.280029,,2013-05-13 16:34:00,
2013-05-13 12:43:00,50.0,22.0,-100.00,SSE,157,4.0,-999.0,32,-99.99,,,-99.99,676.280029,,2013-05-13 16:43:00,
2013-05-13 12:53:00,50.0,22.0,-100.00,SSE,157,4.0,-999.0,32,-99.99,,,-99.99,676.280029,,2013-05-13 16:53:00,
2013-05-13 17:00:00,55.0,20.0,-100.00,SW,225,4.0,-999.0,25,-99.99,,,-99.99,603.200012,,2013-05-13 21:00:00,
2013-05-13 17:44:00,55.0,20.0,-100.00,SW,225,4.0,-999.0,25,-99.99,,,-99.99,603.200012,,2013-05-13 21:44:00,
2013-05-13 17:53:00,55.0,20.0,-100.00,SW,225,4.0,-999.0,25,-99.99,,,-99.99,603.200012,,2013-05-13 21:53:00,
2013-05-13 18:00:00,57.0,20.0,-100.00,SW,225,3.0,-999.0,23,-99.99,,,-99.99,476.760010,,2013-05-13 22:00:00,
2013-05-13 18:43:00,57.0,20.0,-100.00,SW,225,3.0,-999.0,23,-99.99,,,-99.99,476.760010,,2013-05-13 22:43:00,
2013-05-13 18:52:00,57.0,20.0,-100.00,SW,225,3.0,-999.0,23,-99.99,,,-99.99,476.760010,,2013-05-13 22:52:00,
2013-05-13 21:00:00,52.0,31.0,-100.00,NW,315,2.0,-999.0,44,-99.99,,,-99.99,20.879999,,2013-05-14 01:00:00,
2013-05-13 21:43:00,52.0,31.0,-100.00,NW,315,2.0,-999.0,44,-99.99,,,-99.99,20.879999,,2013-05-14 01:43:00,
2013-05-13 21:53:00,52.0,31.0,-100.00,NW,315,2.0,-999.0,44,-99.99,,,-99.99,20.879999,,2013-05-14 01:53:00,
2013-05-13 22:00:00,50.0,27.0,-100.00,NNW,337,3.0,-999.0,40,-99.99,,,-99.99,0.000000,,2013-05-14 02:00:00,
2013-05-13 22:42:00,50.0,27.0,-100.00,NNW,337,3.0,-999.0,40,-99.99,,,-99.99,0.000000,,2013-05-14 02:42:00,
2013-05-13 22:52:00,50.0,27.0,-100.00,NNW,337,3.0,-999.0,40,-99.99,,,-99.99,0.000000,,2013-05-14 02:52:00,
2013-05-13 23:00:00,49.0,24.0,-100.00,North,0,4.0,-999.0,36,-99.99,,,-99.99,0.000000,,2013-05-14 03:00:00,
2013-05-13 23:43:00,49.0,24.0,-100.00,North,0,4.0,-999.0,36,-99.99,,,-99.99,0.000000,,2013-05-14 03:43:00,
2013-05-13 23:53:00,49.0,24.0,-100.00,North,0,4.0,-999.0,36,-99.99,,,-99.99,0.000000,,2013-05-14 03:53:00,